User: anonymous   Login
Location: LDNL
(36.4545°S, 141.6685°E)
Time: 18:45:37
(UTC+10:00)
Language:

METEOR M2 - Orbit

View from above orbital plane
View from above orbital plane
View from above satellite
View from above satellite

Ground track
Ground track

The orbit data is extracted from the following two-line orbital elements,

1 40069U 14037A   22135.92667348  .00000036  00000-0  36056-4 0  9995
2 40069  98.4339 155.2125 0006877  61.9312 298.2563 14.20707070407248
Epoch (UTC): 15 May 2022 22:14:24
Eccentricity: 0.0006877
inclination: 98.4339°
perigee height: 818 km
apogee height: 828 km
right ascension of ascending node: 155.2125°
argument of perigee: 61.9312°
revolutions per day: 14.20707070
mean anomaly at epoch: 298.2563°
orbit number at epoch: 40724

The dashed part of the orbit path shows where the satellite is in the earth's shadow,  

DLR